Amarillo, TX

11:20 AM CDT on September 25, 2016 (GMT -0500)
Amarillo International

Weather History for KAMA - October, 2011

Change the Weather History Date:

Saturday, October 29, 2011

  Actual Average Record
Temperature  
Mean Temperature 50 °F 54 °F  
Max Temperature 67 °F 68 °F 90 °F (1950)
Min Temperature 33 °F 40 °F 15 °F (1917)
Degree Days  
Heating Degree Days 15 11  
Month to date heating degree days 184 210  
Since 1 July heating degree days 203 254  
Cooling Degree Days 0 0  
Month to date cooling degree days 41 25  
Year to date cooling degree days 2220 1395  
Moisture  
Dew Point 37 °F    
Average Humidity 67    
Maximum Humidity 96    
Minimum Humidity 37    
Precipitation  
Precipitation 0.00 in 0.05 in 0.89 in (1929)
Month to date precipitation 1.23 1.58  
Year to date precipitation 4.84 18.77  
Snow  
Snow 0.00 in 0.10 in 0.50 in (1976)
Month to date snowfall 3.1 0.2  
Since 1 July snowfall 3.1 0.2  
Since 1 September snowfall 3.1 0.2  
Snow Depth 0.00 in    
Sea Level Pressure  
Sea Level Pressure 30.07 in    
Wind  
Wind Speed 15 mph (SSW)    
Max Wind Speed 31 mph    
Max Gust Speed 37 mph    
Visibility 10 miles    
Events      
T = Trace of Precipitation, MM = Missing Value Source: NWS Daily Summary

Daily Weather History Graph

Daily Weather History Graph

Search for Another Location

Airport or City:

Trip Planner

Search our weather history database for the weather conditions in past years. The results will help you decide how hot, cold, wet, or windy it might be!

Date:

Astronomy

Oct. 29, 2011 Rise Set
Actual Time 8:05 AM CDT 6:55 PM CDT
Civil Twilight 7:39 AM CDT 7:21 PM CDT
Nautical Twilight 7:09 AM CDT 7:51 PM CDT
Astronomical Twilight 6:39 AM CDT 8:20 PM CDT
Moon 11:22 AM CDT (10/29) 9:28 PM CDT (10/29)
Length of Visible Light 11h 42m
Length of Day
10h 50m
Waxing Crescent, 12% of the Moon is Illuminated
Oct 29
Waxing Crescent
Nov 2
First Quarter
Nov 10
Full
Nov 18
Last Quarter
Nov 25
New

Hourly Weather History & Observations

Time (CDT) Temp. Windchill Dew Point Humidity Pressure Visibility Wind Dir Wind Speed Gust Speed Precip Events Conditions
12:53 AM 34.0 °F 27.2 °F 30.0 °F 85% 30.28 in 10.0 mi SSW 8.1 mph - N/A   Clear
1:53 AM 36.0 °F 31.1 °F 30.9 °F 82% 30.26 in 10.0 mi SW 5.8 mph - N/A   Clear
2:53 AM 35.1 °F 27.4 °F 30.9 °F 85% 30.26 in 10.0 mi SW 10.4 mph - N/A   Clear
3:53 AM 36.0 °F 28.5 °F 32.0 °F 86% 30.23 in 10.0 mi SSW 10.4 mph - N/A   Clear
4:53 AM 33.8 °F 25.8 °F 30.2 °F 87% 30.23 in 8.0 mi SSW 10.4 mph - N/A   Clear
5:53 AM 33.1 °F 26.1 °F 30.9 °F 92% 30.20 in 9.0 mi SSW 8.1 mph - N/A   Clear
6:53 AM 34.0 °F 26.0 °F 32.0 °F 92% 30.19 in 8.0 mi South 10.4 mph - N/A   Clear
7:53 AM 35.1 °F 26.4 °F 33.1 °F 92% 30.19 in 10.0 mi SSW 12.7 mph - N/A   Clear
8:53 AM 37.0 °F 28.5 °F 35.1 °F 93% 30.18 in 10.0 mi SSW 13.8 mph - N/A   Clear
9:53 AM 45.0 °F 37.4 °F 39.9 °F 82% 30.15 in 10.0 mi SSW 18.4 mph - N/A   Clear
10:53 AM 52.0 °F - 41.0 °F 66% 30.12 in 10.0 mi SSW 25.3 mph - N/A   Clear
11:53 AM 55.0 °F - 39.9 °F 57% 30.10 in 10.0 mi SSW 26.5 mph 33.4 mph N/A   Clear
12:53 PM 59.0 °F - 39.0 °F 48% 30.06 in 10.0 mi SSW 27.6 mph 34.5 mph N/A   Clear
1:53 PM 62.1 °F - 41.0 °F 46% 30.00 in 10.0 mi SSW 23.0 mph 32.2 mph N/A   Clear
2:53 PM 63.0 °F - 41.0 °F 45% 29.95 in 10.0 mi SSW 27.6 mph 35.7 mph N/A   Clear
3:53 PM 64.9 °F - 41.0 °F 42% 29.91 in 10.0 mi SW 20.7 mph 33.4 mph N/A   Clear
4:53 PM 66.0 °F - 39.9 °F 38% 29.90 in 10.0 mi SW 21.9 mph 27.6 mph N/A   Clear
5:53 PM 66.0 °F - 39.9 °F 38% 29.89 in 10.0 mi SW 13.8 mph - N/A   Clear
6:53 PM 60.8 °F - 41.0 °F 48% 29.94 in 10.0 mi South 11.5 mph - N/A   Clear
7:53 PM 55.9 °F - 42.1 °F 60% 29.92 in 10.0 mi South 10.4 mph - N/A   Clear
8:53 PM 52.0 °F - 43.0 °F 71% 29.93 in 10.0 mi South 11.5 mph - N/A   Clear
9:53 PM 48.0 °F - 42.1 °F 80% 29.93 in 10.0 mi SSW 5.8 mph - N/A   Clear
10:53 PM 48.0 °F - 41.0 °F 77% 29.92 in 10.0 mi SSW 8.1 mph - N/A   Clear
11:53 PM 46.0 °F 41.0 °F 41.0 °F 83% 29.91 in 10.0 mi SW 10.4 mph - N/A   Clear